This demonstration page uses our WeatherBlox Daily Observations layout. Learn more.

Left ArrowRight Arrow

44.8408, -93.29828

Hourly Observations for April 13, 2019

Temp ( °F °C ) Dew Point ( °F °C ) Humidity (%) Winds ( mph kmh ) Pressure ( in mb ) Visibility ( mi km ) Precip ( " mm )
12:53 am 00:53 Cloudy 31 -0.6 25 -3.9 79 79 W 12 19 29.83 1010 10 16 0.00 0.00
1:49 am 01:49 Cloudy 30 -1 25 -4 80 80 W 12 19 29.87 1011 10 16 0.00 0.00
1:53 am 01:53 Cloudy 31 -0.6 24 -4.4 76 76 W 12 19 29.84 1011 10 16 0.00 0.00
2:53 am 02:53 Cloudy 31 -0.6 24 -4.4 76 76 W 14 22 29.86 1011 10 16 0.00 0.00
3:53 am 03:53 Cloudy 31 -0.6 24 -4.4 76 76 WSW 10 17 29.88 1012 10 16 0.00 0.00
4:24 am 04:24 Cloudy 31 -0.6 23 -5 72 72 WSW 13 20 29.92 1013 10 16 0.00 0.00
4:53 am 04:53 Cloudy 31 -0.6 23 -5 72 72 WSW 8 13 29.91 1013 10 16 0.00 0.00
5:53 am 05:53 Cloudy 31 -0.6 23 -5 72 72 WSW 9 15 29.93 1013 10 16 0.00 0.00
6:39 am 06:39 Cloudy 31 -0.6 24 -4.4 76 76 W 10 17 29.97 1015 10 16 0.00 0.00
6:53 am 06:53 Cloudy 30 -1.1 24 -4.4 79 79 W 10 17 29.95 1014 10 16 0.00 0.00
7:53 am 07:53 Cloudy 31 -0.6 25 -3.9 79 79 W 9 15 29.98 1015 10 16 0.00 0.00
8:53 am 08:53 Cloudy 32 0 26 -3.3 79 79 WNW 12 19 30.01 1016 10 16 0.00 0.00
9:53 am 09:53 Cloudy 33 0.6 24 -4.4 70 70 NW 12 19 30.02 1017 10 16 0.00 0.00
10:33 am 10:33 Mostly Cloudy 34 1.1 24 -4.4 67 67 NNW 14 22 30.03 1017 10 16 0.00 0.00
10:53 am 10:53 Mostly Cloudy 35 1.7 22 -5.6 59 59 NW 9 15 30.05 1018 10 16 0.00 0.00
11:53 am 11:53 Cloudy 36 2.2 22 -5.6 57 57 NW 12 19 30.08 1019 10 16 0.00 0.00
12:53 pm 12:53 Cloudy 36 2.2 22 -5.6 57 57 WNW 8 13 30.08 1019 10 16 0.00 0.00
1:53 pm 13:53 Mostly Cloudy 38 3.3 22 -5.6 52 52 NW 12 19 30.13 1020 10 16 0.00 0.00
2:53 pm 14:53 Cloudy 38 3.3 23 -5 55 55 NW 12 19 30.12 1020 10 16 0.00 0.00
3:53 pm 15:53 Cloudy 38 3.3 23 -5 55 55 W 10 17 30.12 1020 10 16 0.00 0.00
4:53 pm 16:53 Cloudy 38 3.3 24 -4.4 57 57 NW 9 15 30.11 1020 10 16 0.00 0.00
5:53 pm 17:53 Cloudy 38 3.3 23 -5 55 55 NW 10 17 30.13 1020 10 16 0.00 0.00
6:53 pm 18:53 Cloudy 38 3.3 23 -5 55 55 NW 8 13 30.13 1020 10 16 0.00 0.00
7:53 pm 19:53 Mostly Cloudy 38 3.3 23 -5 55 55 NW 5 7 30.14 1021 10 16 0.00 0.00
8:53 pm 20:53 Partly Cloudy 37 2.8 23 -5 57 57 Calm 30.14 1021 10 16 0.00 0.00
9:53 pm 21:53 Mostly Clear 36 2.2 22 -5.6 57 57 E 5 7 30.16 1021 10 16 0.00 0.00
10:53 pm 22:53 Clear 31 -0.6 24 -4.4 76 76 Calm 30.14 1021 10 16 0.00 0.00
11:53 pm 23:53 Clear 29 -1.7 24 -4.4 82 82 NNW 5 7 30.11 1020 10 16 0.00 0.00

Powered by AerisWeather